FMCHFMMI

Guest
Details From FMCH - Prince Said Ibrahim
To FMMI - Ivato
Flight Number -
Tags Generated
Created
Modified
Stats Distance 499 nm / 925 km
Max Altitude 0 ft / 0 m
Waypoints 4
Social Downloads 0
Likes 0
Share VATSIM

Download

Looking for another format? Having issues loading an existing format? Contact us
Advertisement - Login to hide

Notes

Generated

Route

FMCH 1545S IA FMMI

ID Type Via Altitude Latitude Longitude Leg Dist Tot Dist Heading (true) Name
O FMCH APT - 0 ft / 0 m -11.54659˚ 43.26955˚ - 0 nm - -
1545S FIX - 0 ft / 0 m -15.00000˚ 45.00000˚ 230 nm 230 nm 154° / 154° -
IA NDB - 0 ft / 0 m -18.79336˚ 47.45492˚ 267 nm 498 nm 149° / 148° ANTANANARIVO IVATO NDB
O FMMI APT - 0 ft / 0 m -18.79479˚ 47.46427˚ 0 nm 499 nm 99° / 99° -

Altitude Profile

Advertisement - Login to hide

Weather


0- 5 10 15 20 25 30 35+ Temperature / ° C

Clouds and Precipitation
Forecast for 2018-05-27 18:00 UTC. Updated 5 hours ago

Ground ~20,000 ft ~40,000 ft Winds

FMCH

Details ICAO FMCH (HAH)
Name PRINCE SAID IBRAHIM
Region Comoros, Mayotte, Réunion and Madagascar
Timezone Indian/Comoro (UTC+3.0)
Stats Elevation 93 ft / 28 m (AMSL)
Location -11.533663° 43.271848°
Runways 1
Magnetic Variation 6.428° W

METAR

Not found

TAF

TAF TAF FMCH 271700Z 2718/2824 10003KT 9999 FEW020 SCT030 BECMG 2805/2807 22015G25KT BECMG 2815/2817 12003G13KT

Decode

Departure Runways

ID Width Length Bearing (true) Bearing (mag) Surface Threshold Offset Overrun Length
02 148 ft / 45 m 9,576 ft / 2,919 m 9.88° 16.31° Asphalt 0 ft / 0 m 200 ft / 61 m
20 148 ft / 45 m 9,576 ft / 2,919 m 189.88° 196.31° Asphalt 0 ft / 0 m 200 ft / 61 m

FMMI

Details ICAO FMMI (TNR)
Name IVATO
Region Comoros, Mayotte, Réunion and Madagascar
Timezone Indian/Antananarivo (UTC+3.0)
Stats Elevation 4,198 ft / 1,280 m (AMSL)
Location -18.796950° 47.478806°
Runways 1
Magnetic Variation 15.173° W

METAR

FMMI 272200Z 11003KT 9999 FEW020 14/13 Q1023 NOSIG

Decode

TAF

TAF FMMI 271100Z 2712/2818 VRB06KT 9999 SCT023 PROB30 2802/2806 0400 FG BKN004

Decode

Destination Runways

ID Width Length Bearing (true) Bearing (mag) Surface Threshold Offset Overrun Length
11 148 ft / 45 m 10,167 ft / 3,099 m 98.92° 114.09° Asphalt 0 ft / 0 m 90 ft / 27 m
29 148 ft / 45 m 10,167 ft / 3,099 m 278.91° 294.08° Asphalt 0 ft / 0 m 90 ft / 27 m

Approach Navaids

Runway Type Ident Frequency Range Bearing (true) Bearing (mag) Slope Elevation
11 Localiser IO 109.50 MHz 18 nm / 33 km 98.89° 114.06° - 4,125 ft / 1,257 m (AMSL)
11 Glidescope IO 109.50 MHz 10 nm / 19 km 98.91° 114.08° 3.00° 4,198 ft / 1,280 m (AMSL)

Popular Alternatives